Simultaneous Nadir Overpasses (SNOs) Predictions

Prediction of SNOs between AURA and NPP Satellite Orbit:

Table of predicted SNOs for the next 14.0 days since TLE Epoch: 9/17/2022
Index Date (AURA) Time (AURA) Lat,Lon (AURA) SZA (AURA ) Date (NPP) Time (NPP) Lat,Lon (NPP) SZA (NPP ) Distance(km) Time Diff (sec)
1 09/19/2022 19:09:00 79.42, 149.09 90.98 09/19/2022 19:08:47 79.41, 149.03 91.00 1.33 13
2 09/19/2022 19:58:20 -79.69, -41.36 89.40 09/19/2022 19:59:24 -79.69, -41.31 89.46 0.91 64
3 09/22/2022 10:36:08 -79.29, 96.47 87.88 09/22/2022 10:35:02 -79.30, 96.60 87.85 2.93 66
4 09/22/2022 11:25:28 79.51, -94.40 91.83 09/22/2022 11:25:40 79.51, -94.41 91.82 0.29 12
5 09/25/2022 02:52:37 -79.32,-147.43 86.94 09/25/2022 02:51:57 -79.33,-147.40 86.92 0.70 40
6 09/25/2022 03:41:57 79.54, 21.71 92.77 09/25/2022 03:42:35 79.53, 21.59 92.76 2.44 38
7 09/27/2022 19:09:02 -79.45, -30.70 86.14 09/27/2022 19:08:48 -79.45, -30.62 86.14 1.53 14
8 09/27/2022 19:58:23 79.63, 138.19 93.63 09/27/2022 19:59:27 79.62, 138.12 93.60 1.46 64
9 09/30/2022 10:36:10 79.19, -84.15 95.20 09/30/2022 10:35:06 79.18, -84.29 95.27 3.00 64



Historial Predications of SNOs between AURA and NPP
